TimeCDT,TemperatureF,Dew PointF,Humidity,Sea Level PressureIn,VisibilityMPH,Wind Direction,Wind SpeedMPH,Gust SpeedMPH,PrecipitationIn,Events,Conditions,WindDirDegrees,DateUTC
12:15 AM,44.6,30.7,58,30.08,10.0,SW,6.9,-,N/A,,Clear,230,2012-11-01 05:15:00
12:35 AM,45.1,30.6,57,30.09,10.0,WSW,8.1,-,N/A,,Clear,240,2012-11-01 05:35:00
12:55 AM,42.6,30.2,61,30.09,10.0,WSW,8.1,-,N/A,,Clear,240,2012-11-01 05:55:00
1:15 AM,43.5,30.9,61,30.08,10.0,SW,10.4,-,N/A,,Clear,230,2012-11-01 06:15:00
1:35 AM,44.2,30.7,59,30.08,10.0,SW,9.2,-,N/A,,Clear,230,2012-11-01 06:35:00
1:55 AM,43.7,30.7,60,30.09,10.0,SW,9.2,-,N/A,,Clear,230,2012-11-01 06:55:00
2:15 AM,42.8,30.9,63,30.09,10.0,WSW,9.2,-,N/A,,Clear,240,2012-11-01 07:15:00
2:35 AM,42.4,31.1,64,30.09,10.0,WSW,9.2,-,N/A,,Clear,240,2012-11-01 07:35:00
2:55 AM,42.6,30.9,63,30.08,10.0,SW,9.2,-,N/A,,Clear,230,2012-11-01 07:55:00
3:15 AM,41.7,31.1,66,30.08,10.0,WSW,9.2,-,N/A,,Clear,240,2012-11-01 08:15:00
3:35 AM,41.0,31.1,68,30.08,10.0,SW,8.1,-,N/A,,Clear,230,2012-11-01 08:35:00
3:55 AM,42.6,31.6,65,30.07,10.0,WSW,11.5,-,N/A,,Clear,240,2012-11-01 08:55:00
4:15 AM,41.9,32.0,68,30.07,10.0,WSW,10.4,-,N/A,,Clear,240,2012-11-01 09:15:00
4:35 AM,40.5,31.8,71,30.06,10.0,SW,10.4,-,N/A,,Clear,230,2012-11-01 09:35:00
4:55 AM,40.1,31.8,72,30.06,10.0,WSW,9.2,-,N/A,,Clear,240,2012-11-01 09:55:00
5:15 AM,40.6,31.8,71,30.06,10.0,WSW,9.2,-,N/A,,Clear,240,2012-11-01 10:15:00
5:35 AM,40.3,31.8,72,30.06,10.0,WSW,10.4,-,N/A,,Clear,240,2012-11-01 10:35:00
5:55 AM,39.2,31.5,74,30.06,10.0,WSW,9.2,-,N/A,,Clear,240,2012-11-01 10:55:00
6:35 AM,40.1,31.6,72,30.05,10.0,WSW,9.2,-,N/A,,Clear,240,2012-11-01 11:35:00
7:15 AM,39.7,31.6,73,30.04,10.0,WSW,10.4,-,N/A,,Clear,240,2012-11-01 12:15:00
7:35 AM,40.1,31.6,72,30.04,10.0,SW,12.7,-,N/A,,Clear,230,2012-11-01 12:35:00
7:55 AM,40.6,31.5,70,30.04,10.0,WSW,10.4,-,N/A,,Clear,240,2012-11-01 12:55:00
8:15 AM,39.7,31.5,72,30.04,10.0,WSW,11.5,-,N/A,,Clear,240,2012-11-01 13:15:00
8:35 AM,39.2,31.3,73,30.04,10.0,WSW,9.2,-,N/A,,Clear,240,2012-11-01 13:35:00
8:55 AM,39.4,32.0,75,30.04,10.0,WSW,3.5,-,N/A,,Clear,240,2012-11-01 13:55:00
9:15 AM,42.4,32.0,67,30.04,10.0,WSW,6.9,-,N/A,,Clear,240,2012-11-01 14:15:00
9:35 AM,45.1,32.4,61,30.04,10.0,WSW,6.9,-,N/A,,Clear,240,2012-11-01 14:35:00
9:55 AM,47.3,32.4,56,30.04,10.0,WSW,5.8,-,N/A,,Clear,240,2012-11-01 14:55:00
10:15 AM,49.3,32.5,53,30.04,10.0,WSW,5.8,-,N/A,,Clear,250,2012-11-01 15:15:00
10:35 AM,50.9,33.1,51,30.04,10.0,WSW,4.6,-,N/A,,Clear,250,2012-11-01 15:35:00
10:55 AM,53.6,32.9,45,30.04,10.0,WSW,5.8,-,N/A,,Clear,250,2012-11-01 15:55:00
11:15 AM,56.3,32.4,40,30.03,10.0,West,4.6,-,N/A,,Clear,260,2012-11-01 16:15:00
11:35 AM,59.4,32.4,36,30.03,10.0,Calm,Calm,-,N/A,,Clear,0,2012-11-01 16:35:00
11:55 AM,64.2,32.0,30,30.02,10.0,South,3.5,-,N/A,,Clear,180,2012-11-01 16:55:00
12:15 PM,69.6,31.3,24,30.01,10.0,Calm,Calm,-,N/A,,Clear,0,2012-11-01 17:15:00
12:55 PM,75.0,25.0,16,29.98,10.0,South,9.2,-,N/A,,Clear,170,2012-11-01 17:55:00
1:15 PM,75.6,23.7,15,29.97,10.0,SSE,13.8,-,N/A,,Clear,160,2012-11-01 18:15:00
1:35 PM,76.5,22.8,14,29.96,10.0,South,13.8,-,N/A,,Clear,170,2012-11-01 18:35:00
1:55 PM,77.2,21.9,13,29.95,10.0,South,11.5,16.1,N/A,,Clear,180,2012-11-01 18:55:00
2:15 PM,78.1,20.7,12,29.94,10.0,South,11.5,19.6,N/A,,Clear,180,2012-11-01 19:15:00
2:35 PM,78.1,19.8,11,29.92,10.0,South,16.1,-,N/A,,Clear,190,2012-11-01 19:35:00
2:55 PM,79.2,19.2,11,29.92,10.0,South,15.0,18.4,N/A,,Clear,180,2012-11-01 19:55:00
3:15 PM,77.4,19.8,12,29.91,10.0,South,15.0,20.7,N/A,,Clear,190,2012-11-01 20:15:00
3:35 PM,79.2,17.6,10,29.91,10.0,South,13.8,-,N/A,,Clear,180,2012-11-01 20:35:00
3:55 PM,79.7,17.6,10,29.90,10.0,South,17.3,23.0,N/A,,Clear,170,2012-11-01 20:55:00
4:15 PM,78.4,17.8,10,29.90,10.0,South,15.0,20.7,N/A,,Clear,170,2012-11-01 21:15:00
4:35 PM,76.5,19.2,12,29.89,10.0,South,10.4,17.3,N/A,,Clear,190,2012-11-01 21:35:00
4:55 PM,76.5,20.8,13,29.89,10.0,SSE,10.4,17.3,N/A,,Clear,160,2012-11-01 21:55:00
5:15 PM,74.1,23.0,15,29.88,10.0,SSE,10.4,-,N/A,,Clear,160,2012-11-01 22:15:00
5:35 PM,74.8,22.3,14,29.88,10.0,South,9.2,-,N/A,,Clear,170,2012-11-01 22:35:00
5:55 PM,73.4,23.2,15,29.88,10.0,South,9.2,-,N/A,,Clear,170,2012-11-01 22:55:00
6:15 PM,69.6,24.6,18,29.88,10.0,SSE,9.2,-,N/A,,Clear,160,2012-11-01 23:15:00
6:35 PM,67.6,24.4,20,29.88,10.0,SSE,10.4,-,N/A,,Clear,160,2012-11-01 23:35:00
6:55 PM,64.4,24.8,22,29.88,10.0,SSE,10.4,-,N/A,,Clear,160,2012-11-01 23:55:00
7:15 PM,62.8,26.1,25,29.88,10.0,SSE,9.2,-,N/A,,Clear,150,2012-11-02 00:15:00
7:35 PM,59.9,26.4,28,29.88,10.0,SSE,10.4,-,N/A,,Clear,150,2012-11-02 00:35:00
7:55 PM,59.2,26.6,29,29.88,10.0,SSE,10.4,-,N/A,,Clear,150,2012-11-02 00:55:00
8:15 PM,58.1,26.6,30,29.88,10.0,SSE,11.5,-,N/A,,Clear,150,2012-11-02 01:15:00
8:35 PM,54.7,27.9,36,29.88,10.0,SE,9.2,-,N/A,,Clear,140,2012-11-02 01:35:00
8:55 PM,53.6,28.0,37,29.88,10.0,SE,4.6,-,N/A,,Clear,130,2012-11-02 01:55:00
9:15 PM,52.2,28.4,40,29.88,10.0,Calm,Calm,-,N/A,,Clear,0,2012-11-02 02:15:00
9:35 PM,50.7,29.1,43,29.88,10.0,North,3.5,-,N/A,,Clear,10,2012-11-02 02:35:00
9:55 PM,51.4,29.3,43,29.88,10.0,NNE,4.6,-,N/A,,Clear,20,2012-11-02 02:55:00
10:15 PM,52.3,29.5,42,29.88,10.0,Calm,Calm,-,N/A,,Clear,0,2012-11-02 03:15:00
10:35 PM,56.3,28.8,35,29.87,10.0,Calm,Calm,-,N/A,,Clear,0,2012-11-02 03:35:00
10:55 PM,56.8,28.9,34,29.87,10.0,SW,3.5,-,N/A,,Clear,220,2012-11-02 03:55:00
11:15 PM,57.2,28.9,34,29.86,10.0,SSW,5.8,-,N/A,,Clear,200,2012-11-02 04:15:00
11:35 PM,55.9,28.9,36,29.87,10.0,Calm,Calm,-,N/A,,Clear,0,2012-11-02 04:35:00
11:55 PM,53.6,29.8,40,29.87,10.0,Calm,Calm,-,N/A,,Clear,0,2012-11-02 04:55:00